[[{"header":{"parameterUnit":"m.s-1","parameterCategory":1,"la1":30.2991,"la2":30.254,"lo1":-89.0895,"lo2":-89.0444,"dy":0.0017,"dx":0.0017,"nx":28,"ny":28,"refTime":"2025-07-13T09:00:00:Z","depth":0,"parameterNumber":2,"parameterNumberName":"U-component_of_WINDS"},"data":[0,0,0,0,0,0,0,0,0,0,0,0,0,0,0,0,0,0,0,0,0,0,0,0,0,0,0,0,0,0,0,0,0,0,0,0,0,0,0,0,0,0,0,0,0,0,0,0,0,0,0,0,0,0,0,0,0,0,1.3992,1.3993,0,1.4064,1.4064,1.4065,1.4064,1.4063,1.4062,1.4061,1.4133,1.4136,1.4139,0,0,0,0,0,0,0,0,0,0,0,0,0,1.3851,1.3854,1.3992,1.3993,1.3994,1.4063,1.4064,1.4065,1.4064,1.4063,1.4061,1.406,1.4132,1.4136,1.4139,0,0,0,0,0,0,0,0,0,0,0,0,0,1.3916,1.3854,1.3992,1.4001,1.4003,1.4063,1.4064,1.4066,1.4064,1.4063,1.4061,1.406,1.4131,1.4135,1.414,1.4195,0,0,1.4153,1.4155,0,0,0,0,0,0,0,0,1.3913,1.3921,1.3999,1.4001,1.4003,1.4053,1.4041,1.4109,1.4064,1.4041,1.4061,1.4059,1.4108,1.4114,1.4131,1.4198,1.4201,1.4153,1.4156,1.4157,1.4159,0,0,0,0,0,0,0,1.3908,1.3918,1.402,1.4,1.4002,1.4001,1.4009,1.4054,1.4082,1.4043,1.4043,1.4051,1.4109,1.4126,1.4132,1.4203,1.4153,1.4157,1.4159,1.4161,1.4316,1.4318,0,0,0,0,0,0,1.3902,1.3915,1.4018,1.4022,1.3953,1.4005,1.4013,1.4038,1.4081,1.4086,1.4052,1.4051,1.412,1.4127,1.4135,1.42,1.4157,1.4161,1.4164,1.4315,1.4317,1.4318,0,0,0,0,0,0,1.3899,1.3911,1.4015,1.3968,1.3982,1.4009,1.4037,1.4041,1.4058,1.4088,1.4093,1.4066,1.4119,1.4129,1.4179,1.4203,1.4163,1.4167,1.4313,1.4315,1.4318,1.4333,0,0,0,0,0,0,1.3895,1.391,1.3932,1.3969,1.3984,1.4059,1.4038,1.4043,1.4066,1.4065,1.4102,1.4107,1.4119,1.4173,1.4184,1.4208,1.417,1.4311,1.4314,1.4317,1.433,1.4336,1.434,0,0,0,0,0,1.389,1.3934,1.3933,1.3946,1.4012,1.4061,1.4069,1.4082,1.4068,1.4089,1.4108,1.4106,1.4199,1.4178,1.419,1.4216,1.4309,1.4313,1.4317,1.4328,1.4335,1.434,0,0,0,0,0,0,1.3899,1.3939,1.3939,1.3996,1.4025,1.406,1.4088,1.4088,1.4122,1.4119,1.4133,1.4141,1.4191,1.4209,1.4186,1.427,1.4252,1.4258,1.4257,1.4263,1.4268,1.4262,1.4174,0,0,0,0,0,1.3908,1.3944,1.3977,1.4025,1.4039,1.4061,1.4083,1.409,1.412,1.4132,1.4155,1.4184,1.4219,1.4242,1.4277,1.4333,1.434,1.4357,1.4361,1.4365,1.437,1.4398,1.4405,1.433,1.433,1.433,0,0,1.3927,1.3953,1.3975,1.4027,1.405,1.4086,1.4071,1.4111,1.4138,1.4138,1.4187,1.4204,1.4237,1.429,1.4315,1.4307,1.4392,1.437,1.4372,1.4375,1.4403,1.441,1.4416,1.4332,1.4332,1.4332,0,0,1.3978,1.4003,1.4044,1.4067,1.4102,1.4116,1.4126,1.4161,1.4172,1.4221,1.4222,1.4253,1.4315,1.4338,1.4357,1.4415,1.4414,1.4426,1.4451,1.4478,1.4484,1.4489,1.4508,1.4515,1.4431,1.4431,1.4431,0,1.3997,1.4052,1.4065,1.4104,1.4126,1.4128,1.4169,1.419,1.4235,1.4249,1.424,1.4315,1.4338,1.4395,1.4409,1.4425,1.4436,1.4422,1.4482,1.4488,1.4493,1.4511,1.4518,1.4432,1.4432,1.4432,1.4432,0,1.4072,1.411,1.4139,1.4181,1.4207,1.4247,1.4264,1.4288,1.4293,1.4307,1.4356,1.4383,1.4422,1.4436,1.4441,1.4493,1.4487,1.448,1.4461,1.4501,1.4518,1.4525,1.4434,1.4434,1.4433,1.4433,0,0,1.4133,1.418,1.419,1.4208,1.4246,1.4275,1.4314,1.4352,1.4371,1.4402,1.4433,1.4484,1.4477,1.45,1.4507,1.4532,1.4573,1.4521,1.4522,1.4528,1.463,1.4634,1.4642,1.4573,1.4574,1.4575,1.4626,0,1.4187,1.4257,1.4268,1.4329,1.4363,1.4364,1.4398,1.4424,1.4438,1.4468,1.4484,1.4519,1.4508,1.4521,1.4546,1.4563,1.4594,1.456,1.4601,1.4602,1.4591,1.4651,1.4656,1.4703,1.4633,1.4635,1.4635,0,1.426,1.4291,1.4355,1.4386,1.4401,1.4431,1.4465,1.4495,1.4523,1.4532,1.4556,1.456,1.4599,1.4579,1.4632,1.4609,1.4626,1.4637,1.4639,1.4643,1.462,1.4654,1.4719,1.4725,1.4646,1.4646,1.4645,0,1.4295,1.4353,1.4398,1.4414,1.4452,1.4473,1.4489,1.4517,1.4538,1.4568,1.4581,1.4615,1.4634,1.4659,1.4672,1.4657,1.4723,1.4706,1.473,1.473,1.4743,1.4742,1.481,1.4757,1.4757,1.4757,1.4757,0,1.4354,1.4393,1.4414,1.4442,1.4484,1.4497,1.4538,1.4554,1.4578,1.4608,1.4611,1.4639,1.4654,1.4684,1.4694,1.4735,1.4744,1.4751,1.4753,1.475,1.4749,1.4761,1.4757,1.4759,1.4758,1.4758,1.4758,0,1.44,1.4417,1.4465,1.4497,1.4505,1.4535,1.4561,1.4587,1.4601,1.4638,1.4648,1.4669,1.4704,1.4719,1.4762,1.4769,1.4815,1.4816,1.4805,1.4806,1.4829,1.4826,1.4905,1.4915,1.4857,1.4858,1.4858,0,1.4436,1.4465,1.4499,1.4519,1.4536,1.4569,1.459,1.4603,1.4625,1.4659,1.468,1.4715,1.4743,1.4799,1.4817,1.485,1.485,1.4876,1.4855,1.485,1.4848,1.4846,1.4848,1.4879,1.488,1.488,1.4881,0,1.4497,1.4503,1.4534,1.4567,1.4592,1.4618,1.4644,1.466,1.4677,1.4701,1.4737,1.4759,1.4802,1.4836,1.4869,1.4885,1.4885,1.4887,1.4894,1.4891,1.4883,1.4885,1.4814,1.4885,1.4884,1.4884,1.4884,1.4884,1.4538,1.4563,1.459,1.4624,1.4644,1.4668,1.4693,1.471,1.4739,1.4775,1.4781,1.4818,1.4844,1.4889,1.4906,1.4935,1.4928,1.4939,1.4942,1.4944,1.4944,1.4879,1.4941,1.4941,1.4941,1.4941,1.4941,0,1.4597,1.4614,1.4645,1.4681,1.4706,1.4704,1.4732,1.4754,1.4786,1.4811,1.4838,1.4878,1.491,1.4931,1.4963,1.4982,1.4983,1.499,1.4988,1.4991,1.4949,1.4939,1.4989,1.4989,1.4989,1.4989,1.4989,1.4989,1.4631,1.4673,1.4682,1.4733,1.475,1.4786,1.4802,1.4823,1.4843,1.4887,1.4913,1.4927,1.4949,1.4983,1.5012,1.5017,1.5028,1.5035,1.504,1.5,1.4995,1.499,1.498,1.5038,1.5038,1.508,1.508,1.508]},{"header":{"parameterUnit":"m.s-1","parameterCategory":1,"la1":30.2991,"la2":30.254,"lo1":-89.0895,"lo2":-89.0444,"dy":0.0017,"dx":0.0017,"nx":28,"ny":28,"refTime":"2025-07-13T09:00:00:Z","depth":0,"parameterNumber":3,"parameterNumberName":"V-component_of_WINDS"},"data":[0,0,0,0,0,0,0,0,0,0,0,0,0,0,0,0,0,0,0,0,0,0,0,0,0,0,0,0,0,0,0,0,0,0,0,0,0,0,0,0,0,0,0,0,0,0,0,0,0,0,0,0,0,0,0,0,0,0,3.9299,3.9299,0,3.9314,3.9315,3.9315,3.9248,3.9246,3.9244,3.9243,3.9256,3.9258,3.926,0,0,0,0,0,0,0,0,0,0,0,0,0,3.9209,3.9211,3.9299,3.9299,3.93,3.9314,3.9315,3.9315,3.9249,3.9246,3.9244,3.9242,3.9255,3.9258,3.926,0,0,0,0,0,0,0,0,0,0,0,0,0,3.9239,3.9212,3.9299,3.9268,3.9266,3.9314,3.9315,3.9315,3.9249,3.9246,3.9243,3.9241,3.9254,3.9257,3.9261,3.9339,0,0,3.9271,3.9272,0,0,0,0,0,0,0,0,3.9237,3.9242,3.9273,3.9271,3.9268,3.9276,3.9288,3.9323,3.925,3.9255,3.9242,3.9239,3.9265,3.9267,3.9276,3.9339,3.934,3.9271,3.9273,3.9274,3.9275,0,0,0,0,0,0,0,3.9235,3.9241,3.9305,3.9273,3.927,3.9253,3.9254,3.9294,3.9276,3.9255,3.925,3.9253,3.9263,3.9273,3.9276,3.934,3.9271,3.9274,3.9276,3.9277,3.9466,3.9469,0,0,0,0,0,0,3.9238,3.924,3.9305,3.9306,3.9245,3.9257,3.9258,3.9277,3.9276,3.9273,3.9255,3.925,3.9269,3.9272,3.9276,3.9366,3.9274,3.9277,3.9279,3.9463,3.9467,3.947,0,0,0,0,0,0,3.9236,3.9244,3.9304,3.9271,3.9278,3.9261,3.9283,3.9278,3.9289,3.9276,3.9272,3.9269,3.9267,3.9272,3.9323,3.9366,3.9279,3.9282,3.9459,3.9464,3.9468,3.9547,0,0,0,0,0,0,3.9234,3.9244,3.9275,3.9273,3.928,3.9352,3.9286,3.9281,3.9295,3.9287,3.9288,3.9285,3.9265,3.9319,3.9327,3.9368,3.9284,3.9455,3.9461,3.9467,3.9541,3.9554,3.9565,0,0,0,0,0,3.9231,3.9296,3.9276,3.9285,3.9318,3.9355,3.9359,3.9335,3.9298,3.9328,3.932,3.9285,3.936,3.9325,3.9333,3.9376,3.9452,3.946,3.9466,3.9535,3.9552,3.9565,0,0,0,0,0,0,3.9303,3.9295,3.9273,3.934,3.9349,3.9343,3.938,3.9353,3.9371,3.9363,3.9332,3.9333,3.9389,3.9388,3.9349,3.9451,3.94,3.9409,3.945,3.9465,3.9477,3.9475,3.9287,0,0,0,0,0,3.9327,3.9359,3.935,3.941,3.9415,3.9397,3.9412,3.9393,3.94,3.9403,3.9399,3.9406,3.9431,3.9448,3.947,3.9541,3.9539,3.9574,3.9587,3.9597,3.9605,3.964,3.9655,3.9493,3.9493,3.9492,0,0,3.9376,3.9376,3.9398,3.9424,3.9428,3.946,3.9401,3.9438,3.946,3.9408,3.9457,3.9454,3.946,3.9521,3.9547,3.9521,3.9649,3.9606,3.9614,3.9616,3.9648,3.9664,3.9677,3.9497,3.9496,3.9496,0,0,3.9482,3.9486,3.9535,3.954,3.9547,3.9535,3.9547,3.9546,3.9542,3.959,3.9551,3.9577,3.9622,3.9627,3.9635,3.9742,3.9711,3.975,3.9814,3.9849,3.9861,3.9873,3.9909,3.9923,3.9758,3.9758,3.9759,0,3.9542,3.959,3.9564,3.9603,3.9615,3.9569,3.9618,3.9624,3.9638,3.9647,3.9618,3.9671,3.9672,3.9733,3.9759,3.9768,3.9779,3.9749,3.9862,3.9873,3.9883,3.9917,3.9931,3.9763,3.9762,3.9762,3.9762,0,3.9662,3.9696,3.9734,3.9749,3.9765,3.9809,3.9788,3.9808,3.9787,3.9777,3.9826,3.9826,3.9846,3.9859,3.984,3.9917,3.99,3.9867,3.9815,3.9903,3.9935,3.9948,3.977,3.9768,3.9767,3.9765,0,0,3.9814,3.9813,3.9827,3.9832,3.9836,3.9861,3.9902,3.9923,3.9939,3.9951,3.9983,4.0021,3.999,4.0,3.998,4.0011,4.0093,3.9973,3.9973,3.9994,4.0176,4.02,4.0216,4.0073,4.0075,4.0077,4.0175,0,3.9916,3.9986,3.9963,4.0034,4.0064,4.0021,4.0056,4.0062,4.0054,4.0077,4.0067,4.0094,4.0052,4.0057,4.0086,4.0077,4.0129,4.007,4.0101,4.0102,4.0099,4.0232,4.0258,4.0351,4.0187,4.019,4.0191,0,4.0045,4.006,4.0134,4.0132,4.0143,4.0176,4.0192,4.0215,4.022,4.0212,4.0222,4.0196,4.0234,4.0183,4.0235,4.0195,4.0207,4.0204,4.0207,4.0208,4.0151,4.0235,4.038,4.0393,4.0211,4.0209,4.0208,0,4.0145,4.0185,4.0234,4.024,4.0239,4.0262,4.0263,4.0265,4.0278,4.0292,4.03,4.0319,4.0329,4.0343,4.0321,4.0287,4.0376,4.0323,4.0369,4.037,4.0389,4.0387,4.0536,4.0399,4.0399,4.0398,4.0398,0,4.0261,4.0307,4.0279,4.0309,4.0359,4.0332,4.0382,4.0378,4.038,4.0407,4.0372,4.0398,4.0369,4.0392,4.0375,4.042,4.0425,4.0418,4.0413,4.0421,4.0421,4.0427,4.0419,4.0402,4.0401,4.0401,4.04,0,4.0382,4.0365,4.0415,4.041,4.0409,4.0446,4.0441,4.0468,4.0457,4.0492,4.0498,4.0481,4.0507,4.0487,4.0512,4.0501,4.0559,4.0546,4.0558,4.0553,4.0599,4.0595,4.0755,4.0774,4.0627,4.0628,4.0629,0,4.0456,4.049,4.0489,4.0504,4.0507,4.0533,4.0547,4.0521,4.0536,4.0544,4.0569,4.0592,4.0608,4.065,4.064,4.0658,4.0644,4.0699,4.0646,4.0652,4.0643,4.064,4.0643,4.0709,4.0711,4.0712,4.0713,0,4.0589,4.0578,4.0599,4.0617,4.0633,4.0646,4.0656,4.0671,4.0644,4.0663,4.0688,4.0701,4.0726,4.0749,4.0763,4.0763,4.0733,4.073,4.0741,4.0748,4.0753,4.075,4.0585,4.0726,4.0725,4.0724,4.0723,4.0723,4.0687,4.0715,4.0718,4.0741,4.0746,4.0756,4.078,4.0772,4.0793,4.0812,4.0795,4.0825,4.0828,4.0845,4.0848,4.0871,4.0848,4.0864,4.0868,4.0872,4.0878,4.0751,4.0873,4.0873,4.0873,4.0872,4.0872,0,4.0816,4.0816,4.0838,4.0852,4.0871,4.0842,4.0851,4.0868,4.0895,4.09,4.0917,4.0946,4.0967,4.0958,4.0976,4.0996,4.0983,4.1001,4.0999,4.0999,4.0898,4.0886,4.1012,4.1012,4.1012,4.1012,4.1012,4.1012,4.0886,4.0931,4.0921,4.0968,4.0966,4.0996,4.1003,4.1011,4.1015,4.1049,4.1066,4.106,4.1059,4.1077,4.1095,4.1091,4.1099,4.1122,4.1114,4.102,4.1006,4.0993,4.0981,4.1125,4.1125,4.1212,4.1213,4.1214]}]]